AEROCUBE 6B

Last updated on Thu Jul 03 2025 00:03:45 GMT+0000 (Coordinated Universal Time)

1 40046U 14033AN 25183.43760978 .00003923 00000+0 36946-3 0 9995 2 40046 97.6935 350.3545 0042929 97.0845 263.5260 14.93709636594447
UTC large
Height (km)
Speed (km/s)
/
Latitude / Longitude
Inclination (degrees)
Orbital Period (minutes)
Azimuth
Elevation
Range (km)
Doppler Factor

Next 0 passes for location: London (51.5072 / 0.1276)

Sorry there are no passes over London.